TimeEDT,TemperatureF,Dew PointF,Humidity,Sea Level PressureIn,VisibilityMPH,Wind Direction,Wind SpeedMPH,Gust SpeedMPH,PrecipitationIn,Events,Conditions,WindDirDegrees,DateUTC
12:56 AM,64.9,61.0,87,29.70,10.0,South,11.5,19.6,0.00,,Overcast,190,2013-10-18 04:56:00
1:14 AM,64.4,60.8,88,29.69,5.0,South,11.5,21.9,0.01,Rain,Light Rain,190,2013-10-18 05:14:00
1:21 AM,64.4,60.8,88,29.69,7.0,SSW,12.7,-,0.02,Rain,Light Rain,200,2013-10-18 05:21:00
1:28 AM,64.4,60.8,88,29.69,8.0,SSW,11.5,19.6,0.02,Rain,Light Rain,210,2013-10-18 05:28:00
1:56 AM,64.9,61.0,87,29.68,10.0,SSW,12.7,20.7,0.02,,Overcast,210,2013-10-18 05:56:00
2:14 AM,64.4,62.6,94,29.68,10.0,SSW,13.8,24.2,N/A,,Overcast,210,2013-10-18 06:14:00
2:31 AM,64.4,62.6,94,29.68,10.0,SSW,15.0,23.0,N/A,,Overcast,200,2013-10-18 06:31:00
2:56 AM,64.9,62.1,90,29.67,10.0,SW,13.8,-,N/A,,Overcast,220,2013-10-18 06:56:00
3:27 AM,64.4,62.6,94,29.67,10.0,SW,12.7,-,N/A,,Mostly Cloudy,230,2013-10-18 07:27:00
3:37 AM,64.4,62.6,94,29.67,10.0,WSW,10.4,-,N/A,,Mostly Cloudy,240,2013-10-18 07:37:00
3:56 AM,64.0,61.0,90,29.67,10.0,West,10.4,-,N/A,,Overcast,270,2013-10-18 07:56:00
4:56 AM,63.0,54.0,72,29.71,10.0,West,11.5,-,N/A,,Partly Cloudy,280,2013-10-18 08:56:00
5:56 AM,61.0,52.0,72,29.73,10.0,WNW,6.9,-,N/A,,Scattered Clouds,290,2013-10-18 09:56:00
6:56 AM,59.0,51.1,75,29.75,10.0,West,9.2,-,N/A,,Scattered Clouds,260,2013-10-18 10:56:00
7:56 AM,59.0,48.9,69,29.78,10.0,West,10.4,-,N/A,,Partly Cloudy,260,2013-10-18 11:56:00
8:56 AM,61.0,46.9,60,29.81,10.0,West,10.4,21.9,N/A,,Partly Cloudy,280,2013-10-18 12:56:00
9:56 AM,63.0,45.0,52,29.83,10.0,WNW,15.0,25.3,N/A,,Partly Cloudy,300,2013-10-18 13:56:00
10:56 AM,64.0,43.0,46,29.84,10.0,West,18.4,26.5,N/A,,Partly Cloudy,280,2013-10-18 14:56:00
11:56 AM,66.0,44.1,45,29.85,10.0,WNW,16.1,24.2,N/A,,Partly Cloudy,300,2013-10-18 15:56:00
12:56 PM,66.0,44.1,45,29.84,10.0,NW,13.8,25.3,N/A,,Partly Cloudy,310,2013-10-18 16:56:00
1:56 PM,68.0,44.1,42,29.84,10.0,NW,16.1,24.2,N/A,,Partly Cloudy,310,2013-10-18 17:56:00
2:56 PM,68.0,42.1,39,29.84,10.0,NW,13.8,21.9,N/A,,Partly Cloudy,310,2013-10-18 18:56:00
3:56 PM,68.0,42.1,39,29.84,10.0,WNW,9.2,-,N/A,,Partly Cloudy,300,2013-10-18 19:56:00
4:56 PM,68.0,42.1,39,29.84,10.0,NW,11.5,-,N/A,,Partly Cloudy,310,2013-10-18 20:56:00
5:56 PM,64.9,41.0,42,29.86,10.0,WNW,6.9,-,N/A,,Partly Cloudy,290,2013-10-18 21:56:00
6:56 PM,60.1,41.0,49,29.88,10.0,West,5.8,-,N/A,,Partly Cloudy,280,2013-10-18 22:56:00
7:56 PM,59.0,42.1,53,29.90,10.0,West,5.8,-,N/A,,Clear,280,2013-10-18 23:56:00
8:56 PM,55.9,42.1,60,29.92,10.0,West,4.6,-,N/A,,Partly Cloudy,270,2013-10-19 00:56:00
9:56 PM,54.0,42.1,64,29.94,10.0,WSW,5.8,-,N/A,,Partly Cloudy,250,2013-10-19 01:56:00
10:56 PM,52.0,41.0,66,29.95,10.0,West,4.6,-,N/A,,Partly Cloudy,270,2013-10-19 02:56:00
11:56 PM,50.0,41.0,71,29.96,10.0,WSW,5.8,-,N/A,,Clear,250,2013-10-19 03:56:00